Time,TemperatureF,DewpointF,PressureIn,WindDirection,WindDirectionDegrees,WindSpeedMPH,WindSpeedGustMPH,Humidity,HourlyPrecipIn,Conditions,Clouds,dailyrainin,SoftwareType,DateUTC
2013-07-29 00:02:00,64.0,55.0,30.10,SW,236,0.0,0.0,72,0.00,,,0.00,,2013-07-29 05:02:00,
2013-07-29 00:22:00,63.0,54.0,30.10,SW,236,0.0,0.0,72,0.00,,,0.00,,2013-07-29 05:22:00,
2013-07-29 00:32:00,63.0,54.0,30.11,SW,236,0.0,0.0,73,0.00,,,0.00,,2013-07-29 05:32:00,
2013-07-29 00:53:00,63.0,54.0,30.11,SW,236,0.0,0.0,73,0.00,,,0.00,,2013-07-29 05:53:00,
2013-07-29 01:02:00,63.0,54.0,30.11,SW,236,0.0,0.0,73,0.00,,,0.00,,2013-07-29 06:02:00,
2013-07-29 01:12:00,63.0,55.0,30.10,SW,236,0.0,0.0,74,0.00,,,0.00,,2013-07-29 06:12:00,
2013-07-29 01:22:00,63.0,55.0,30.10,SW,236,0.0,0.0,74,0.00,,,0.00,,2013-07-29 06:22:00,
2013-07-29 01:32:00,63.0,55.0,30.10,SW,236,0.0,0.0,74,0.00,,,0.00,,2013-07-29 06:32:00,
2013-07-29 01:43:00,63.0,55.0,30.10,SW,236,0.0,0.0,74,0.00,,,0.00,,2013-07-29 06:43:00,
2013-07-29 01:52:00,63.0,55.0,30.10,SW,236,0.0,0.0,74,0.00,,,0.00,,2013-07-29 06:52:00,
2013-07-29 02:02:00,63.0,55.0,30.10,SW,236,0.0,0.0,74,0.00,,,0.00,,2013-07-29 07:02:00,
2013-07-29 02:12:00,63.0,55.0,30.10,SW,236,0.0,0.0,75,0.00,,,0.00,,2013-07-29 07:12:00,
2013-07-29 02:22:00,63.0,55.0,30.10,SW,236,0.0,0.0,75,0.00,,,0.00,,2013-07-29 07:22:00,
2013-07-29 02:33:00,63.0,56.0,30.09,SW,236,0.0,0.0,77,0.00,,,0.00,,2013-07-29 07:33:00,
2013-07-29 02:43:00,63.0,56.0,30.09,SW,236,0.0,0.0,77,0.00,,,0.00,,2013-07-29 07:43:00,
2013-07-29 02:53:00,63.0,56.0,30.09,SW,236,0.0,0.0,77,0.00,,,0.00,,2013-07-29 07:53:00,
2013-07-29 03:02:00,62.0,54.0,30.09,SW,236,0.0,0.0,76,0.00,,,0.00,,2013-07-29 08:02:00,
2013-07-29 03:12:00,63.0,55.0,30.08,SW,236,0.0,0.0,74,0.00,,,0.00,,2013-07-29 08:12:00,
2013-07-29 03:22:00,63.0,55.0,30.08,SW,236,0.0,0.0,74,0.00,,,0.00,,2013-07-29 08:22:00,
2013-07-29 03:33:00,63.0,54.0,30.08,SW,236,0.0,1.0,73,0.00,,,0.00,,2013-07-29 08:33:00,
2013-07-29 03:42:00,63.0,54.0,30.08,SW,230,0.0,1.0,72,0.00,,,0.00,,2013-07-29 08:42:00,
2013-07-29 03:52:00,63.0,54.0,30.08,SW,230,0.0,1.0,72,0.00,,,0.00,,2013-07-29 08:52:00,
2013-07-29 04:02:00,64.0,54.0,30.08,SW,230,0.0,0.0,71,0.00,,,0.00,,2013-07-29 09:02:00,
2013-07-29 04:12:00,64.0,54.0,30.09,SW,230,0.0,0.0,71,0.00,,,0.00,,2013-07-29 09:12:00,
2013-07-29 04:22:00,64.0,54.0,30.09,SW,230,0.0,0.0,71,0.00,,,0.00,,2013-07-29 09:22:00,
2013-07-29 04:33:00,63.0,55.0,30.09,SW,230,0.0,0.0,76,0.00,,,0.00,,2013-07-29 09:33:00,
2013-07-29 04:43:00,62.0,55.0,30.09,SW,230,0.0,0.0,79,0.01,,,0.01,,2013-07-29 09:43:00,
2013-07-29 04:53:00,62.0,55.0,30.09,SW,230,0.0,0.0,79,0.01,,,0.01,,2013-07-29 09:53:00,
2013-07-29 05:04:00,62.0,57.0,30.09,SW,230,0.0,0.0,83,0.01,,,0.01,,2013-07-29 10:04:00,
2013-07-29 05:14:00,61.0,56.0,30.09,SW,230,0.0,0.0,85,0.02,,,0.02,,2013-07-29 10:14:00,
2013-07-29 05:25:00,61.0,56.0,30.09,SW,230,0.0,0.0,85,0.02,,,0.02,,2013-07-29 10:25:00,
2013-07-29 05:37:00,60.0,56.0,30.09,SW,230,0.0,1.0,86,0.04,,,0.04,,2013-07-29 10:37:00,
2013-07-29 05:48:00,60.0,56.0,30.10,SW,230,0.0,1.0,87,0.04,,,0.05,,2013-07-29 10:48:00,
2013-07-29 05:53:00,60.0,56.0,30.10,SW,230,0.0,1.0,87,0.04,,,0.05,,2013-07-29 10:53:00,
2013-07-29 06:05:00,59.0,55.0,30.10,SW,230,0.0,0.0,88,0.06,,,0.07,,2013-07-29 11:05:00,
2013-07-29 06:15:00,59.0,56.0,30.10,SW,230,0.0,1.0,89,0.08,,,0.10,,2013-07-29 11:15:00,
2013-07-29 06:24:00,59.0,56.0,30.10,SW,230,0.0,1.0,89,0.08,,,0.10,,2013-07-29 11:24:00,
2013-07-29 06:36:00,59.0,56.0,30.10,ESE,118,0.0,4.0,89,0.09,,,0.13,,2013-07-29 11:36:00,
2013-07-29 06:44:00,59.0,56.0,30.11,ESE,123,0.0,1.0,90,0.13,,,0.18,,2013-07-29 11:44:00,
2013-07-29 06:55:00,59.0,56.0,30.11,ESE,123,0.0,1.0,90,0.13,,,0.18,,2013-07-29 11:55:00,
2013-07-29 07:09:00,59.0,56.0,30.11,ESE,123,0.0,0.0,90,0.14,,,0.21,,2013-07-29 12:09:00,
2013-07-29 07:14:00,59.0,56.0,30.11,ESE,120,0.0,1.0,91,0.13,,,0.23,,2013-07-29 12:14:00,
2013-07-29 07:26:00,59.0,56.0,30.11,ESE,120,0.0,1.0,91,0.13,,,0.23,,2013-07-29 12:26:00,
2013-07-29 07:35:00,59.0,57.0,30.11,ESE,120,0.0,0.0,92,0.12,,,0.25,,2013-07-29 12:35:00,
2013-07-29 07:45:00,59.0,57.0,30.11,ESE,121,0.0,1.0,92,0.06,,,0.25,,2013-07-29 12:45:00,
2013-07-29 07:55:00,59.0,57.0,30.11,ESE,121,0.0,1.0,92,0.06,,,0.25,,2013-07-29 12:55:00,
2013-07-29 08:17:00,60.0,58.0,30.12,ESE,121,0.0,1.0,93,0.01,,,0.25,,2013-07-29 13:17:00,
2013-07-29 08:27:00,60.0,58.0,30.12,ESE,121,0.0,1.0,93,0.01,,,0.25,,2013-07-29 13:27:00,
2013-07-29 08:36:00,60.0,58.0,30.11,ESE,119,0.0,1.0,93,0.00,,,0.25,,2013-07-29 13:36:00,
2013-07-29 08:54:00,61.0,59.0,30.11,ESE,118,0.0,1.0,93,0.00,,,0.25,,2013-07-29 13:54:00,
2013-07-29 09:12:00,61.0,59.0,30.11,ESE,103,0.0,3.0,93,0.00,,,0.25,,2013-07-29 14:12:00,
2013-07-29 09:28:00,61.0,59.0,30.11,ESE,103,0.0,3.0,93,0.00,,,0.25,,2013-07-29 14:28:00,
2013-07-29 09:35:00,62.0,60.0,30.10,ESE,109,0.0,4.0,93,0.00,,,0.25,,2013-07-29 14:35:00,
2013-07-29 09:45:00,62.0,60.0,30.11,ESE,113,0.0,3.0,93,0.00,,,0.25,,2013-07-29 14:45:00,
2013-07-29 09:55:00,62.0,60.0,30.11,ESE,113,0.0,3.0,93,0.00,,,0.25,,2013-07-29 14:55:00,
2013-07-29 10:08:00,62.0,60.0,30.11,East,86,0.0,7.0,93,0.00,,,0.25,,2013-07-29 15:08:00,
2013-07-29 10:14:00,63.0,61.0,30.11,SE,130,0.0,6.0,92,0.00,,,0.25,,2013-07-29 15:14:00,
2013-07-29 10:37:00,63.0,61.0,30.10,South,174,0.0,4.0,92,0.00,,,0.25,,2013-07-29 15:37:00,
2013-07-29 10:45:00,63.0,60.0,30.09,SE,133,0.0,4.0,91,0.00,,,0.25,,2013-07-29 15:45:00,
2013-07-29 10:54:00,63.0,60.0,30.09,SE,133,0.0,4.0,91,0.00,,,0.25,,2013-07-29 15:54:00,
2013-07-29 11:07:00,63.0,60.0,30.09,ESE,118,0.0,3.0,90,0.00,,,0.25,,2013-07-29 16:07:00,
2013-07-29 11:13:00,63.0,60.0,30.08,ESE,122,0.0,4.0,90,0.01,,,0.26,,2013-07-29 16:13:00,
2013-07-29 11:24:00,63.0,60.0,30.08,ESE,122,0.0,4.0,90,0.01,,,0.26,,2013-07-29 16:24:00,
2013-07-29 11:38:00,64.0,61.0,30.08,ESE,115,0.0,4.0,91,0.02,,,0.27,,2013-07-29 16:38:00,
2013-07-29 11:45:00,64.0,61.0,30.08,ESE,105,0.0,6.0,91,0.02,,,0.27,,2013-07-29 16:45:00,
2013-07-29 11:55:00,64.0,61.0,30.08,ESE,105,0.0,6.0,91,0.02,,,0.27,,2013-07-29 16:55:00,
2013-07-29 12:07:00,64.0,61.0,30.08,SSE,153,0.0,5.0,91,0.02,,,0.27,,2013-07-29 17:07:00,
2013-07-29 12:13:00,64.0,61.0,30.07,East,83,1.0,7.0,91,0.02,,,0.28,,2013-07-29 17:13:00,
2013-07-29 12:24:00,64.0,61.0,30.07,East,83,1.0,7.0,91,0.02,,,0.28,,2013-07-29 17:24:00,
2013-07-29 12:40:00,64.0,61.0,30.07,East,84,0.0,5.0,91,0.01,,,0.28,,2013-07-29 17:40:00,
2013-07-29 13:06:00,64.0,61.0,30.07,East,98,0.0,5.0,90,0.01,,,0.28,,2013-07-29 18:06:00,
2013-07-29 13:14:00,64.0,61.0,30.07,East,101,0.0,5.0,90,0.01,,,0.28,,2013-07-29 18:14:00,
2013-07-29 13:45:00,64.0,61.0,30.05,ESE,119,0.0,6.0,91,0.01,,,0.28,,2013-07-29 18:45:00,
2013-07-29 13:55:00,64.0,61.0,30.05,ESE,119,0.0,6.0,91,0.01,,,0.28,,2013-07-29 18:55:00,
2013-07-29 14:03:00,64.0,61.0,30.06,East,87,0.0,7.0,91,0.03,,,0.31,,2013-07-29 19:03:00,
2013-07-29 14:15:00,64.0,62.0,30.06,ESE,107,0.0,5.0,92,0.11,,,0.40,,2013-07-29 19:15:00,
2013-07-29 14:25:00,64.0,62.0,30.06,ESE,107,0.0,5.0,92,0.11,,,0.40,,2013-07-29 19:25:00,
2013-07-29 14:37:00,64.0,62.0,30.06,ESE,102,0.0,10.0,93,0.11,,,0.40,,2013-07-29 19:37:00,
2013-07-29 14:45:00,64.0,62.0,30.05,ESE,115,2.0,8.0,93,0.11,,,0.40,,2013-07-29 19:45:00,
2013-07-29 15:07:00,64.0,62.0,30.05,ESE,115,0.0,8.0,93,0.09,,,0.40,,2013-07-29 20:07:00,
2013-07-29 15:15:00,65.0,63.0,30.05,SE,138,1.0,10.0,93,0.00,,,0.40,,2013-07-29 20:15:00,
2013-07-29 15:24:00,65.0,63.0,30.05,SE,138,1.0,10.0,93,0.00,,,0.40,,2013-07-29 20:24:00,
2013-07-29 15:35:00,65.0,63.0,30.05,ENE,72,0.0,9.0,93,0.00,,,0.40,,2013-07-29 20:35:00,
2013-07-29 15:47:00,65.0,63.0,30.05,SE,126,0.0,6.0,93,0.00,,,0.40,,2013-07-29 20:47:00,
2013-07-29 15:56:00,65.0,63.0,30.05,SE,126,0.0,6.0,93,0.00,,,0.40,,2013-07-29 20:56:00,
2013-07-29 16:05:00,65.0,63.0,30.05,ENE,61,0.0,8.0,93,0.00,,,0.40,,2013-07-29 21:05:00,
2013-07-29 16:24:00,66.0,64.0,30.03,SE,125,0.0,5.0,93,0.01,,,0.41,,2013-07-29 21:24:00,
2013-07-29 16:35:00,66.0,64.0,30.05,ESE,103,0.0,5.0,93,0.01,,,0.41,,2013-07-29 21:35:00,
2013-07-29 16:47:00,66.0,64.0,30.05,East,99,0.0,1.0,93,0.01,,,0.41,,2013-07-29 21:47:00,
2013-07-29 17:04:00,66.0,64.0,30.04,ENE,58,0.0,5.0,93,0.02,,,0.43,,2013-07-29 22:04:00,
2013-07-29 17:16:00,66.0,64.0,30.03,ENE,69,0.0,8.0,94,0.04,,,0.45,,2013-07-29 22:16:00,
2013-07-29 17:25:00,66.0,64.0,30.03,ENE,69,0.0,8.0,94,0.04,,,0.45,,2013-07-29 22:25:00,
2013-07-29 17:37:00,66.0,64.0,30.02,ESE,107,0.0,5.0,94,0.05,,,0.46,,2013-07-29 22:37:00,
2013-07-29 17:44:00,66.0,64.0,30.03,East,90,1.0,9.0,94,0.05,,,0.47,,2013-07-29 22:44:00,
2013-07-29 17:55:00,66.0,64.0,30.03,East,90,1.0,9.0,94,0.05,,,0.47,,2013-07-29 22:55:00,
2013-07-29 18:05:00,66.0,64.0,30.03,East,98,0.0,6.0,94,0.06,,,0.49,,2013-07-29 23:05:00,
2013-07-29 18:14:00,66.0,64.0,30.03,ENE,61,0.0,4.0,94,0.07,,,0.52,,2013-07-29 23:14:00,
2013-07-29 18:26:00,66.0,64.0,30.03,ENE,61,0.0,4.0,94,0.07,,,0.52,,2013-07-29 23:26:00,
2013-07-29 18:35:00,66.0,64.0,30.02,ESE,107,0.0,5.0,94,0.08,,,0.54,,2013-07-29 23:35:00,
2013-07-29 18:54:00,66.0,65.0,30.01,East,99,0.0,8.0,95,0.10,,,0.56,,2013-07-29 23:54:00,
2013-07-29 19:07:00,66.0,65.0,30.00,East,91,0.0,7.0,95,0.10,,,0.59,,2013-07-30 00:07:00,
2013-07-29 19:25:00,66.0,65.0,30.00,East,92,1.0,8.0,95,0.08,,,0.60,,2013-07-30 00:25:00,
2013-07-29 19:34:00,66.0,65.0,30.02,ESE,102,0.0,9.0,95,0.07,,,0.61,,2013-07-30 00:34:00,
2013-07-29 19:54:00,67.0,66.0,30.02,East,82,0.0,5.0,95,0.03,,,0.61,,2013-07-30 00:54:00,
2013-07-29 20:06:00,67.0,66.0,30.01,SE,138,0.0,4.0,95,0.02,,,0.61,,2013-07-30 01:06:00,
2013-07-29 20:23:00,67.0,66.0,30.01,East,98,0.0,9.0,95,0.02,,,0.62,,2013-07-30 01:23:00,
2013-07-29 20:37:00,67.0,66.0,30.02,East,88,0.0,5.0,95,0.01,,,0.62,,2013-07-30 01:37:00,
2013-07-29 20:44:00,67.0,66.0,30.03,SE,136,0.0,4.0,95,0.01,,,0.62,,2013-07-30 01:44:00,
2013-07-29 20:55:00,67.0,66.0,30.03,SE,136,0.0,4.0,95,0.01,,,0.62,,2013-07-30 01:55:00,
2013-07-29 21:05:00,67.0,66.0,30.02,ESE,110,0.0,5.0,95,0.01,,,0.62,,2013-07-30 02:05:00,
2013-07-29 21:13:00,67.0,66.0,30.00,East,95,0.0,6.0,95,0.01,,,0.63,,2013-07-30 02:13:00,
2013-07-29 21:24:00,67.0,66.0,30.00,East,95,0.0,6.0,95,0.01,,,0.63,,2013-07-30 02:24:00,
2013-07-29 21:37:00,67.0,66.0,30.00,ESE,116,0.0,6.0,95,0.02,,,0.64,,2013-07-30 02:37:00,
2013-07-29 21:45:00,68.0,67.0,30.02,NE,55,0.0,5.0,95,0.04,,,0.66,,2013-07-30 02:45:00,
2013-07-29 21:54:00,68.0,67.0,30.02,NE,55,0.0,5.0,95,0.04,,,0.66,,2013-07-30 02:54:00,
2013-07-29 22:08:00,68.0,67.0,30.02,ESE,123,0.0,4.0,95,0.05,,,0.67,,2013-07-30 03:08:00,
2013-07-29 22:18:00,68.0,67.0,30.02,ESE,123,0.0,1.0,95,0.04,,,0.67,,2013-07-30 03:18:00,
2013-07-29 22:25:00,68.0,67.0,30.02,ESE,123,0.0,1.0,95,0.04,,,0.67,,2013-07-30 03:25:00,
2013-07-29 22:44:00,68.0,67.0,30.03,ESE,113,0.0,1.0,95,0.01,,,0.67,,2013-07-30 03:44:00,
2013-07-29 22:53:00,68.0,67.0,30.03,ESE,113,0.0,1.0,95,0.01,,,0.67,,2013-07-30 03:53:00,
2013-07-29 23:03:00,68.0,67.0,30.03,ESE,105,0.0,5.0,95,0.00,,,0.67,,2013-07-30 04:03:00,
2013-07-29 23:12:00,68.0,67.0,30.02,ENE,64,0.0,3.0,95,0.00,,,0.67,,2013-07-30 04:12:00,
2013-07-29 23:23:00,68.0,67.0,30.02,ENE,64,0.0,3.0,95,0.00,,,0.67,,2013-07-30 04:23:00,
2013-07-29 23:33:00,68.0,67.0,30.02,SE,139,0.0,3.0,95,0.00,,,0.67,,2013-07-30 04:33:00,
2013-07-29 23:43:00,68.0,67.0,30.02,ESE,123,0.0,0.0,95,0.00,,,0.67,,2013-07-30 04:43:00,
2013-07-29 23:53:00,68.0,67.0,30.02,ESE,123,0.0,0.0,95,0.00,,,0.67,,2013-07-30 04:53:00,